Torna al catalogo

COSMOS 1195

AttivoNavigazioneLEO
NORAD 11878·PAYLOAD·🇷🇺 Russia

Lanciato Jul 9, 1980 da Plesetsk Cosmodrome

Loading…

Prossimi Passaggi (prossime 24 ore)

TLE

AggiornatoSource: Space-Track

Epoca: Sep 14, 2026, 06:09 UTC

1 11878U 80058D   26257.25647203  .00000004  00000-0  13381-3 0  9990
2 11878  74.0193 173.4224 0016532 317.5427 211.0253 12.50617732108490

Traccia COSMOS 1195 in tempo reale con AllMySat

Download on the App Store